Weather in Mount Laguna

United States     32°56′02″N   116°28′55″W
temp.,
°C
wind,
m/s
gust,
m/s
humid.,
%
clouds,
%
prec.,
mm/h
press.,
hPa
HPBL,
m
23 may, mon
mon2323:00+11wsw44623 0.0 101545
02:00+12wsw434261 0.0 101327
05:00+12wsw33585 0.0 101225
08:00+18w22385 0.0 1012201
11:00+25nne12231 0.0 10101247
14:00+27n221968 0.0 10091820
17:00+26wnw43305 0.0 10081202
20:00+16wsw44625 0.0 101061
24 may, tue
tue2423:00+15wsw436075 0.0 101041
02:00+15wsw335791 0.0 100924
05:00+16wsw22475 0.0 100913
08:00+24ene22280 0.0 1009305
11:00+27ene55185 0.0 10091417
14:00+29ene431612 0.0 10081889
17:00+28ne111615 0.0 10071890
20:00+20w32410 0.0 100915
25 may, wed
wed2523:00+19sw22460 0.0 101016
02:00+18wsw22420 0.0 101014
05:00+17sw11392 0.0 100911
08:00+26e12220 0.0 1010314
11:00+30e35160 0.0 10101812
14:00+31e34150 0.0 10092612
17:00+29w22210 0.0 10091757
20:00+19wsw43540 0.0 101150
26 may, thu
thu2623:00+17wsw43510 0.0 101238
02:00+17wsw33410 0.0 101127
05:00+17wsw33405 0.0 101124
08:00+23wsw22265 0.0 1012240
11:00+28wnw22201 0.0 10121508
14:00+28w54260 0.0 10111394
17:00+26w55300 0.0 1011797
20:00+17wsw55570 0.0 101384
27 may, fri
fri2723:00+15wsw5556100 0.0 101457
02:00+14wsw5456100 0.0 101463
05:00+15wsw444041 0.0 101337
08:00+20wsw442620 0.0 1014235
11:00+25w45185 0.0 1013866
14:00+27w562199 0.0 10121105
17:00+23w682610 0.0 1012809
20:00+15wsw565189 0.0 1013124